Weather reports worldwide

Advertisment
Lampedusa, Italy (16490): temperature & dewpoint: 15.01.2021 05:00:00 - 21.01.2021 05:00:00 (CET)Lampedusa, Italy (16490): wind speed: 15.01.2021 05:00:00 - 21.01.2021 05:00:00 (CET)Lampedusa, Italy (16490): wind direction: 15.01.2021 05:00:00 - 21.01.2021 05:00:00 (CET)Lampedusa, Italy (16490): reduced air pressure: 15.01.2021 05:00:00 - 21.01.2021 05:00:00 (CET)Lampedusa, Italy (16490): visibility: 15.01.2021 05:00:00 - 21.01.2021 05:00:00 (CET)Lampedusa, Italy (16490): precipitation: 15.01.2021 05:00:00 - 21.01.2021 05:00:00 (CET)
Date & Time tt [°C] td [°C] ff [km/h] ff [kn] dd ppp [hPa] vv [km] rr [mm]
21.01.2021 05:00:00 16,0 13,0 29 16 SSW - 10 -
21.01.2021 04:00:00 15,8 12,9 28 15 SSW 1022,5 10 0,0
21.01.2021 03:00:00 16,0 13,0 31 17 SSW - 10 -
21.01.2021 02:00:00 16,0 12,0 31 17 S - 10 -
21.01.2021 01:00:00 15,6 11,9 29 16 S 1023,7 10 -
21.01.2021 00:00:00 16,0 11,0 29 16 S - 10 -
20.01.2021 23:00:00 15,0 11,0 28 15 S - 10 -
20.01.2021 22:00:00 15,3 10,0 28 15 S 1024,8 10 0,0
20.01.2021 21:00:00 15,0 9,0 28 15 S - 10 -
20.01.2021 20:00:00 15,0 10,0 29 16 S - 10 -
20.01.2021 19:00:00 15,1 9,8 29 16 S 1025,3 10 -
20.01.2021 18:00:00 15,0 10,0 31 17 SSW - 10 -
20.01.2021 17:00:00 15,0 11,0 31 17 SSW - 10 -
20.01.2021 16:00:00 15,3 9,8 29 16 SSW 1025,5 10 0,0
20.01.2021 15:00:00 16,0 10,0 31 17 SSW - 10 -
20.01.2021 14:00:00 16,0 11,0 29 16 SSW - 10 -
20.01.2021 13:00:00 15,6 10,6 34 18 SSW 1026,8 10 -
20.01.2021 12:00:00 16,0 11,0 31 17 SSW - 10 -
20.01.2021 11:00:00 16,0 11,0 29 16 SSW - 10 -
20.01.2021 10:00:00 15,4 10,0 28 15 SSW 1028,8 10 0,0
20.01.2021 09:00:00 15,0 10,0 28 15 SSW - 10 -
20.01.2021 08:00:00 14,0 10,0 28 15 SSW - 10 -
20.01.2021 07:00:00 14,3 9,0 26 14 SSW 1028,4 10 -
20.01.2021 06:00:00 14,0 9,0 22 12 SSW - 10 -
20.01.2021 05:00:00 14,0 9,0 26 14 S - 10 -
20.01.2021 04:00:00 13,7 9,0 22 12 S 1028,3 10 0,0
20.01.2021 03:00:00 14,0 9,0 22 12 S - 10 -
20.01.2021 02:00:00 14,0 9,0 21 11 S - 10 -
20.01.2021 01:00:00 13,5 9,1 18 10 S 1029,2 10 -
20.01.2021 00:00:00 14,0 9,0 21 11 S - 10 -
19.01.2021 23:00:00 13,0 9,0 15 8 S - 10 -
19.01.2021 22:00:00 13,2 7,9 11 6 S 1030,1 10 0,0
19.01.2021 21:00:00 13,0 7,0 11 6 SSW - 10 -
19.01.2021 20:00:00 13,0 7,0 11 6 SSW - 10 -
19.01.2021 19:00:00 13,3 7,7 11 6 SSW 1029,8 10 -
19.01.2021 18:00:00 13,0 8,0 9 5 SSW - 10 -
19.01.2021 17:00:00 14,0 8,0 13 7 SSW - 10 -
19.01.2021 16:00:00 14,1 7,9 11 6 S 1028,9 10 0,0
19.01.2021 15:00:00 14,0 8,0 9 5 SSE - 10 -
19.01.2021 14:00:00 15,0 7,0 8 4 SSE - 10 -
19.01.2021 13:00:00 14,3 7,4 5 3 ESE 1029,2 10 -
19.01.2021 12:00:00 14,0 7,0 11 6 E - 10 -
19.01.2021 11:00:00 14,0 7,0 9 5 NE - 10 -
19.01.2021 10:00:00 13,7 7,5 9 5 ENE 1030,2 10 0,0
19.01.2021 09:00:00 13,0 8,0 9 5 N - 10 -
19.01.2021 08:00:00 12,0 7,0 9 5 NNW - 10 -
19.01.2021 07:00:00 12,1 7,4 13 7 N 1028,5 10 -
19.01.2021 06:00:00 12,0 7,0 13 7 N - 10 -
19.01.2021 05:00:00 12,0 7,0 13 7 N - 10 -
19.01.2021 04:00:00 12,4 7,0 15 8 N 1027,1 10 0,0
19.01.2021 03:00:00 13,0 7,0 16 9 N - 10 -
19.01.2021 02:00:00 13,0 6,0 21 11 N - 10 -
19.01.2021 01:00:00 12,8 5,8 22 12 N 1026,8 10 -
19.01.2021 00:00:00 13,0 6,0 18 10 NNW - 10 -
18.01.2021 23:00:00 13,0 6,0 18 10 NNW - 10 -
18.01.2021 22:00:00 13,0 7,0 21 11 NNW 1026,2 10 0,0
18.01.2021 21:00:00 13,0 7,0 21 11 N - 10 -
18.01.2021 20:00:00 14,0 7,0 22 12 NNW - 10 -
18.01.2021 19:00:00 13,3 7,7 18 10 NNW 1025,2 10 -
18.01.2021 18:00:00 13,0 7,0 21 11 NNW - 10 -
18.01.2021 17:00:00 14,0 7,0 22 12 NNW - 10 -
18.01.2021 16:00:00 13,9 6,9 26 14 N 1023,0 10 0,0
18.01.2021 15:00:00 14,0 7,0 28 15 N - 10 -
18.01.2021 14:00:00 14,0 7,0 35 19 N - 10 -
18.01.2021 13:00:00 14,5 8,5 37 20 N 1021,3 10 -
18.01.2021 12:00:00 15,0 8,0 37 20 NNW - 10 -
18.01.2021 11:00:00 15,0 9,0 35 19 NW - 10 -
18.01.2021 10:00:00 13,9 8,5 34 18 NW 1021,2 10 0,0
18.01.2021 09:00:00 14,0 7,0 39 21 NW - 10 -
18.01.2021 08:00:00 14,0 7,0 42 23 NW - 10 -
18.01.2021 07:00:00 14,0 10,1 42 23 WNW 1018,7 10 -
18.01.2021 06:00:00 14,0 9,0 39 21 WNW - 10 -
18.01.2021 05:00:00 14,0 9,0 39 21 W - 10 -
18.01.2021 04:00:00 14,0 7,8 35 19 W 1017,9 10 0,0
18.01.2021 03:00:00 14,0 7,0 37 20 W - 10 -
18.01.2021 02:00:00 14,0 7,0 37 20 W - 10 -
18.01.2021 01:00:00 14,2 6,2 31 17 W 1018,6 10 -
18.01.2021 00:00:00 14,0 5,0 28 15 WNW - 10 -
17.01.2021 23:00:00 15,0 7,0 31 17 W - 10 -
17.01.2021 22:00:00 14,8 8,6 31 17 WNW 1019,4 10 0,0
17.01.2021 21:00:00 15,0 10,0 29 16 W - 10 -
17.01.2021 20:00:00 15,0 10,0 22 12 W - 10 -
17.01.2021 19:00:00 14,5 9,7 29 16 W 1020,3 10 -
17.01.2021 18:00:00 14,0 10,0 37 20 W - 10 -
17.01.2021 17:00:00 14,0 9,0 34 18 W - 10 -
17.01.2021 16:00:00 13,8 9,0 31 17 W 1020,6 10 0,0
17.01.2021 15:00:00 14,0 9,0 28 15 W - 10 -
17.01.2021 14:00:00 14,0 8,0 28 15 W - 10 -
17.01.2021 13:00:00 13,8 8,6 29 16 WNW 1021,9 10 -
17.01.2021 12:00:00 14,0 8,0 28 15 WNW - 10 -
17.01.2021 11:00:00 14,0 9,0 21 11 WNW - 10 -
17.01.2021 10:00:00 12,3 8,8 13 7 NNW 1023,2 10 0,0
17.01.2021 09:00:00 12,0 6,0 18 10 NW - 10 -
17.01.2021 08:00:00 12,0 5,0 24 13 NW - 10 -
17.01.2021 07:00:00 11,6 4,6 16 9 NNW 1022,1 10 -
17.01.2021 06:00:00 12,0 7,0 18 10 N - 10 -
17.01.2021 05:00:00 12,0 7,0 22 12 N - 10 -
17.01.2021 04:00:00 10,1 8,5 18 10 NNW 1020,9 9 0,0
17.01.2021 03:00:00 13,0 7,0 29 16 NNE - 10 -
17.01.2021 02:00:00 13,0 9,0 21 11 NNE - 10 -
17.01.2021 01:00:00 12,6 9,6 24 13 NNE 1019,5 10 -
17.01.2021 00:00:00 13,0 10,0 21 11 N - 10 -
16.01.2021 23:00:00 13,0 9,0 28 15 N - 10 -
16.01.2021 22:00:00 12,1 9,0 15 8 NNW 1018,2 10 0,0
16.01.2021 21:00:00 11,0 8,0 18 10 NNW - 10 -
16.01.2021 20:00:00 13,0 9,0 24 13 NW - 10 -
16.01.2021 19:00:00 12,7 8,3 21 11 WNW 1016,9 10 -
16.01.2021 18:00:00 13,0 9,0 22 12 NW - 10 -
16.01.2021 17:00:00 13,0 8,0 26 14 WNW - 10 -
16.01.2021 16:00:00 12,6 8,5 24 13 NW 1015,6 10 0,0
16.01.2021 15:00:00 13,0 9,0 26 14 WNW - 10 -
16.01.2021 14:00:00 14,0 11,0 21 11 WNW - 10 -
16.01.2021 13:00:00 14,4 9,4 29 16 WNW 1015,3 10 -
16.01.2021 12:00:00 14,0 9,0 31 17 NW - 10 -
16.01.2021 11:00:00 14,0 10,0 29 16 NW - 10 -
16.01.2021 10:00:00 13,5 10,4 24 13 NNW 1015,8 10 0,0
16.01.2021 09:00:00 12,0 10,0 22 12 NNW - 10 -
16.01.2021 08:00:00 12,0 10,0 24 13 NW - 10 -
16.01.2021 07:00:00 11,9 8,9 28 15 NW 1014,7 10 -
16.01.2021 06:00:00 12,0 10,0 35 19 NW - 10 -
16.01.2021 05:00:00 12,0 11,0 29 16 NW - 10 -
16.01.2021 04:00:00 12,2 10,5 35 19 NW 1013,9 10 0,0
16.01.2021 03:00:00 13,0 9,0 34 18 WNW - 10 -
16.01.2021 02:00:00 14,0 9,0 35 19 WNW - 10 -
16.01.2021 01:00:00 13,6 8,4 37 20 WNW 1014,3 10 -
16.01.2021 00:00:00 14,0 8,0 41 22 WNW - 10 -
15.01.2021 23:00:00 14,0 8,0 42 23 WNW - 10 -
15.01.2021 22:00:00 13,7 8,2 41 22 WNW 1015,0 10 0,0
15.01.2021 21:00:00 14,0 8,0 37 20 WNW - 10 -
15.01.2021 20:00:00 15,0 8,0 37 20 WNW - 10 -
15.01.2021 19:00:00 14,7 8,2 34 18 WNW 1015,4 10 -
15.01.2021 18:00:00 15,0 9,0 34 18 WNW - 10 -
15.01.2021 17:00:00 15,0 9,0 31 17 WNW - 10 -
15.01.2021 16:00:00 15,8 9,4 35 19 WNW 1014,9 10 0,0
15.01.2021 15:00:00 16,0 10,0 37 20 NW - 10 -
15.01.2021 14:00:00 16,0 11,0 39 21 WNW - 10 -
15.01.2021 13:00:00 16,2 10,9 31 17 WNW 1015,5 10 -
15.01.2021 12:00:00 16,0 11,0 34 18 WNW - 10 -
15.01.2021 11:00:00 15,0 11,0 35 19 WNW - 10 -
15.01.2021 10:00:00 14,7 10,3 35 19 WNW 1016,9 10 0,0
15.01.2021 09:00:00 14,0 10,0 34 18 WNW - 10 -
15.01.2021 08:00:00 14,0 10,0 34 18 WNW - 10 -
15.01.2021 07:00:00 14,4 9,2 37 20 WNW 1015,9 10 -
15.01.2021 06:00:00 15,0 9,0 34 18 WNW - 10 -
15.01.2021 05:00:00 14,0 10,0 35 19 WNW - 10 -

tt = temperature
td = dewpoint
ff = wind speed
dd = wind direction
ppp = reduced air pressure
vv = visibility
rr = precipitation

Next stations